Météo Nord-Pas-de-Calais   La météo au plus près de chez vous

Station météorologique

Observations météo à Leran (09161)

09161003 391 m Dernier relevé à 11:36
25.6°C
Humidité 56 % Vent 4 km/h

Journée consultée

Mercredi 2 Septembre 2026

Synthèse de la journée

Périodes de référence en UTC

Température maximale

25.6°C

à 11:30

06h 06h

Température minimale

13.5°C

à 07:12

18h 18h

Rafale maximale

18 km/h

à 11:36

00h 00h

Précipitations

0 mm

Cumul quotidien

06h 06h

Graphiques de la journée

Heure locale Réduire

Données détaillées

Relevés météo

Pas de 6 minutes Afficher les relevés infra-horaires
Relevés météo détaillés à Leran pour le Mercredi 2 Septembre 2026
Heure Température °C Point de rosée °C Humidité % Vent moyen (raf.), km/h Précipitations mm
11:36 25.6 °C 14.7 °C 51 % 7 km/h (18 km/h) 0 mm0 mm
11:30 25.6 °C 14.7 °C 51 % 5 km/h (12 km/h) 0 mm0 mm
11:24 25.4 °C 14.8 °C 52 % 5 km/h (12 km/h) 0 mm0 mm
11:18 25.3 °C 14.7 °C 52 % 5 km/h (10 km/h) 0 mm0 mm
11:12 25.1 °C 14.8 °C 53 % 5 km/h (10 km/h) 0 mm0 mm
11:06 25.1 °C 14.8 °C 53 % 5 km/h (10 km/h) 0 mm0 mm
11:00 24.9 °C 15 °C 54 % 5 km/h (11 km/h) 0 mm0 mm
10:54 24.8 °C 14.9 °C 54 % 6 km/h (13 km/h) 0 mm0 mm
10:48 24.8 °C 15.1 °C 55 % 4 km/h (13 km/h) 0 mm0 mm
10:42 24.4 °C 15.1 °C 56 % 4 km/h (9 km/h) 0 mm0 mm
10:36 24.2 °C 14.9 °C 56 % 4 km/h (8 km/h) 0 mm0 mm
10:30 24.5 °C 15.1 °C 56 % 3 km/h (6 km/h) 0 mm0 mm
10:24 24.3 °C 15.5 °C 58 % 2 km/h (6 km/h) 0 mm0 mm
10:18 23.4 °C 14.9 °C 59 % 2 km/h (6 km/h) 0 mm0 mm
10:12 23.4 °C 14.9 °C 59 % 0 km/h (5 km/h) 0 mm0 mm
10:06 23.1 °C 14.6 °C 59 % 2 km/h (5 km/h) 0 mm0 mm
10:00 22.7 °C 14.8 °C 61 % 3 km/h (5 km/h) 0 mm0 mm
09:54 22.6 °C 14.7 °C 61 % 3 km/h (5 km/h) 0 mm0 mm
09:48 22.1 °C 15 °C 64 % 3 km/h (5 km/h) 0 mm0 mm
09:42 21.8 °C 14.9 °C 65 % 3 km/h (5 km/h) 0 mm0 mm
09:36 21.4 °C 14.5 °C 65 % 3 km/h (5 km/h) 0 mm0 mm
09:30 21.3 °C 15.2 °C 68 % 2 km/h (5 km/h) 0 mm0 mm
09:24 20.8 °C 14.7 °C 68 % 3 km/h (8 km/h) 0 mm0 mm
09:18 20.4 °C 15.2 °C 72 % 3 km/h (8 km/h) 0 mm0 mm
09:12 19.7 °C 15.3 °C 76 % 2 km/h (7 km/h) 0 mm0 mm
09:06 19 °C 15.3 °C 79 % 2 km/h (5 km/h) 0 mm0 mm
09:00 18.5 °C 15.4 °C 82 % 2 km/h (4 km/h) 0 mm0 mm
08:54 17.9 °C 14.8 °C 82 % 2 km/h (4 km/h) 0 mm0 mm
08:48 17.6 °C 14.9 °C 84 % 2 km/h (4 km/h) 0 mm0 mm
08:42 16.8 °C 14.4 °C 86 % 2 km/h (5 km/h) 0 mm0 mm
08:36 16.3 °C 14.5 °C 89 % 2 km/h (5 km/h) 0 mm0 mm
08:30 15.7 °C 13.9 °C 89 % 0 km/h (3 km/h) 0 mm0 mm
08:24 15.3 °C 13.7 °C 90 % 0 km/h (5 km/h) 0 mm0 mm
08:18 15 °C 13.2 °C 89 % 2 km/h (5 km/h) 0 mm0 mm
08:12 14.8 °C 13.3 °C 91 % 0 km/h (4 km/h) 0 mm0 mm
08:06 14.8 °C 13.8 °C 94 % 0 km/h (4 km/h) 0 mm0 mm
08:00 14.4 °C 13.6 °C 95 % 0 km/h (3 km/h) 0 mm0 mm
07:54 14 °C 13 °C 94 % 0 km/h (3 km/h) 0 mm0 mm
07:48 13.6 °C 12.5 °C 93 % 0 km/h (0 km/h) 0 mm0 mm
07:42 13.7 °C 12.8 °C 94 % 0 km/h (0 km/h) 0 mm0 mm
07:36 13.6 °C 12.7 °C 94 % 0 km/h (2 km/h) 0 mm0 mm
07:30 13.7 °C 12.8 °C 94 % 0 km/h (3 km/h) 0 mm0 mm
07:24 13.7 °C 12.8 °C 94 % 0 km/h (3 km/h) 0 mm0 mm
07:18 13.6 °C 12.5 °C 93 % 0 km/h (3 km/h) 0 mm0 mm
07:12 13.5 °C 12.4 °C 93 % 0 km/h (3 km/h) 0 mm0 mm
07:06 13.6 °C 12.5 °C 93 % 0 km/h (2 km/h) 0 mm0 mm
07:00 13.7 °C 12.6 °C 93 % 0 km/h (3 km/h) 0 mm0 mm
06:54 13.7 °C 12.6 °C 93 % 0 km/h (3 km/h) 0 mm0 mm
06:48 13.6 °C 12.5 °C 93 % 0 km/h (0 km/h) 0 mm0 mm
06:42 13.6 °C 12.5 °C 93 % 0 km/h (0 km/h) 0 mm0 mm
06:36 13.7 °C 12.6 °C 93 % 0 km/h (4 km/h) 0 mm0 mm
06:30 13.8 °C 12.9 °C 94 % 2 km/h (4 km/h) 0 mm0 mm
06:24 13.7 °C 12.4 °C 92 % 0 km/h (3 km/h) 0 mm0 mm
06:18 13.7 °C 12.3 °C 91 % 0 km/h (2 km/h) 0 mm0 mm
06:12 13.9 °C 12.6 °C 92 % 0 km/h (4 km/h) 0 mm0 mm
06:06 13.9 °C 12.6 °C 92 % 3 km/h (5 km/h) 0 mm0 mm
06:00 13.7 °C 12.3 °C 91 % 4 km/h (6 km/h) 0 mm0 mm
05:54 13.9 °C 12.3 °C 90 % 3 km/h (5 km/h) 0 mm0 mm
05:48 14 °C 12.4 °C 90 % 3 km/h (5 km/h) 0 mm0 mm
05:42 14.1 °C 12.7 °C 91 % 3 km/h (5 km/h) 0 mm0 mm
05:36 14.1 °C 12.5 °C 90 % 2 km/h (4 km/h) 0 mm0 mm
05:30 14.1 °C 12.5 °C 90 % 0 km/h (3 km/h) 0 mm0 mm
05:24 14.3 °C 12.8 °C 91 % 0 km/h (3 km/h) 0 mm0 mm
05:18 14.3 °C 12.8 °C 91 % 0 km/h (4 km/h) 0 mm0 mm
05:12 14.3 °C 12.7 °C 90 % 3 km/h (4 km/h) 0 mm0 mm
05:06 14.3 °C 12.7 °C 90 % 3 km/h (4 km/h) 0 mm0 mm
05:00 14.4 °C 12.9 °C 91 % 3 km/h (4 km/h) 0 mm0 mm
04:54 14.5 °C 13.2 °C 92 % 0 km/h (3 km/h) 0 mm0 mm
04:48 14.5 °C 13 °C 91 % 0 km/h (0 km/h) 0 mm0 mm
04:42 14.6 °C 13.1 °C 91 % 0 km/h (2 km/h) 0 mm0 mm
04:36 14.7 °C 13.2 °C 91 % 0 km/h (4 km/h) 0 mm0 mm
04:30 14.7 °C 13.2 °C 91 % 3 km/h (4 km/h) 0 mm0 mm
04:24 14.6 °C 13 °C 90 % 2 km/h (5 km/h) 0 mm0 mm
04:18 14.7 °C 13.1 °C 90 % 4 km/h (5 km/h) 0 mm0 mm
04:12 14.6 °C 12.8 °C 89 % 2 km/h (5 km/h) 0 mm0 mm
04:06 14.8 °C 13 °C 89 % 0 km/h (3 km/h) 0 mm0 mm
04:00 14.7 °C 12.7 °C 88 % 0 km/h (3 km/h) 0 mm0 mm
03:54 15 °C 13.2 °C 89 % 2 km/h (4 km/h) 0 mm0 mm
03:48 14.9 °C 12.9 °C 88 % 3 km/h (4 km/h) 0 mm0 mm
03:42 15 °C 12.9 °C 87 % 2 km/h (4 km/h) 0 mm0 mm
03:36 15 °C 12.9 °C 87 % 0 km/h (2 km/h) 0 mm0 mm
03:30 15.2 °C 13.2 °C 88 % 0 km/h (2 km/h) 0 mm0 mm
03:24 15.3 °C 13.5 °C 89 % 0 km/h (2 km/h) 0 mm0 mm
03:18 15.4 °C 13.6 °C 89 % 0 km/h (0 km/h) 0 mm0 mm
03:12 15.4 °C 13.4 °C 88 % 0 km/h (2 km/h) 0 mm0 mm
03:06 15.6 °C 13.6 °C 88 % 0 km/h (2 km/h) 0 mm0 mm
03:00 15.5 °C 13.2 °C 86 % 0 km/h (2 km/h) 0 mm0 mm
02:54 15.5 °C 13 °C 85 % 0 km/h (2 km/h) 0 mm0 mm
02:48 15.7 °C 13.5 °C 87 % 0 km/h (0 km/h) 0 mm0 mm
02:42 15.8 °C 13.6 °C 87 % 0 km/h (0 km/h) 0 mm0 mm
02:36 15.8 °C 13.5 °C 86 % 0 km/h (0 km/h) 0 mm0 mm
02:30 16 °C 13.8 °C 87 % 0 km/h (0 km/h) 0 mm0 mm
02:24 16.2 °C 13.9 °C 86 % 0 km/h (0 km/h) 0 mm0 mm
02:18 16.3 °C 13.8 °C 85 % 0 km/h (0 km/h) 0 mm0 mm
02:12 16.2 °C 12.9 °C 81 % 0 km/h (0 km/h) 0 mm0 mm
02:06 16.4 °C 13.3 °C 82 % 0 km/h (3 km/h) 0 mm0 mm
02:00 16.5 °C 13.4 °C 82 % 0 km/h (3 km/h) 0 mm0 mm
01:54 16.6 °C 13.7 °C 83 % 0 km/h (0 km/h) 0 mm0 mm
01:48 16.7 °C 13.6 °C 82 % 0 km/h (2 km/h) 0 mm0 mm
01:42 16.8 °C 13.9 °C 83 % 0 km/h (3 km/h) 0 mm0 mm
01:36 17 °C 14.1 °C 83 % 0 km/h (3 km/h) 0 mm0 mm
01:30 17 °C 14.1 °C 83 % 0 km/h (0 km/h) 0 mm0 mm
01:24 17 °C 13.7 °C 81 % 0 km/h (3 km/h) 0 mm0 mm
01:18 17 °C 13.1 °C 78 % 2 km/h (3 km/h) 0 mm0 mm
01:12 17 °C 12.9 °C 77 % 0 km/h (3 km/h) 0 mm0 mm
01:06 17.3 °C 13.8 °C 80 % 0 km/h (0 km/h) 0 mm0 mm
01:00 17.3 °C 13.6 °C 79 % 0 km/h (3 km/h) 0 mm0 mm
00:54 17.4 °C 14.1 °C 81 % 0 km/h (3 km/h) 0 mm0 mm
00:48 17.4 °C 13.5 °C 78 % 2 km/h (3 km/h) 0 mm0 mm
00:42 17.3 °C 13 °C 76 % 3 km/h (5 km/h) 0 mm0 mm
00:36 17.4 °C 12.9 °C 75 % 0 km/h (5 km/h) 0 mm0 mm
00:30 17.8 °C 13.7 °C 77 % 0 km/h (3 km/h) 0 mm0 mm
00:24 18 °C 14.1 °C 78 % 0 km/h (0 km/h) 0 mm0 mm
00:18 18 °C 13.3 °C 74 % 0 km/h (2 km/h) 0 mm0 mm
00:12 18.2 °C 13.3 °C 73 % 0 km/h (3 km/h) 0 mm0 mm
00:06 18.2 °C 12.9 °C 71 % 2 km/h (4 km/h) 0 mm0 mm
00:00 18.2 °C 12.9 °C 71 % 3 km/h (4 km/h) 0 mm0 mm

Données via Météo-France

Relevés météo à Leran

Cette page rassemble les observations de la station de Leran : température, humidité, vent, précipitations et pression atmosphérique. Les graphiques facilitent le suivi de la journée, tandis que le tableau donne accès aux mesures horaires et infra-horaires disponibles.

Pour replacer ces mesures dans leur contexte, consultez la climatologie de Leran ainsi que ses normales et records. Retrouvez aussi la carte des observations météo en temps réel.